Regional Weather Roundup
Issued by NWS Wakefield, VA

Home | Current Version | Previous Version | Text Only | Print | Product List | Glossary On
Versions: 1 2 3 4 5 6 7 8 9 10 11 12 13 14 15 16 17 18 19 20 21 22 23 24 25 26 27
000
ASUS41 KAKQ 251315
RWRAKQ

REGIONAL WEATHER ROUNDUP
NATIONAL WEATHER SERVICE WAKEFIELD VA
800 AM EST SUN FEB 25 2018

Note: "fair" indicates few or no clouds below 12,000 feet with no
significant weather and/or obstructions to visibility. * = Denotes
station may not report precipitation (e.g., rain,snow,etc.),
thunder or fog.

VAZ042-051-052>054-056-251400-
NORTHERN VIRGINIA

CITY           SKY/WX    TMP DP  RH WIND       PRES   REMARKS
WASH NATIONAL  LGT RAIN  48  48 100 E3        29.98S FOG
DULLES         LGT RAIN  46  46 100 W6        30.01R VSB 1/4
FORT BELVOIR   LGT RAIN  46  46 100 CALM      29.98R VSB 1/2
QUANTICO       FOG       48  48 100 CALM      29.99R VSB 1/2
FREDERICKSBRG* FOG       48  48 100 CALM      29.97R VSB 1/4
STAFFORD*      FOG       48  48 100 CALM      30.01S VSB 1/4
WARRENTON      RAIN      49  46  92 NW9       30.01R VSB 1/2
CULPEPER*      RAIN      49  48  95 NW7       30.02R VSB 1/4
MANASSAS*      RAIN      46  46 100 NW12      30.04R FOG
LEESBURG*      RAIN      45  45 100 NW9       30.05R
WINCHESTER     DRIZZLE   45  45 100 E6        29.98F
FRONT ROYAL*   CLOUDY    45  45 100 CALM      29.97F
LURAY*         HVY RAIN  46  46 100 E6        29.98R
$$

VAZ048-049-060>072-079>083-251400-
CENTRAL AND SOUTH CENTRAL VIRGINIA

CITY           SKY/WX    TMP DP  RH WIND       PRES   REMARKS
RICHMOND       PTSUNNY   56  56 100 S5        29.96S
CHESTERFIELD*  FAIR      57  57 100 CALM      29.97R FOG
PETERSBURG*    FAIR      62  58  87 S5        29.98S
HANOVER        FOG       53  53 100 CALM      29.97S VSB<1/4
TAPPAHANNOCK*  FOG       51  51 100 CALM      29.97S VSB<1/4
QUINTON*       FAIR      56  56 100 S5        29.96S
CHARLOTTSVILLE LGT RAIN  49  48  97 CALM      29.96S VSB 1/4
GORDONSVILLE*  CLOUDY    48  48 100 CALM      29.97S FOG
ORANGE*        LGT RAIN  46  46 100 CALM      29.98R VSB 1/4
LOUISA*        FOG       48  48 100 CALM      30.01S VSB 1/4
BUMPASS*       CLOUDY    49  48  95 W3        29.97R VSB 1/4
FARMVILLE*     FOG      N/A N/A N/A CALM      29.95S VSB 1/4
CREWE*         FAIR      58  58 100 S3        29.95F
FORT PICKETT*  FAIR      63  63 100 S14G21    29.96F
CHASE CITY*    FAIR      65  62  90 S3        29.98R
CLARKSVILLE*   FAIR      64  63  94 S12G20    29.98S
SOUTH HILL*    FAIR      63  62  94 S13       30.05R
LAWRENCEVILLE* FAIR      64  60  87 S7        29.99S
EMPORIA*       FAIR      64  61  88 S10G16    30.02R
$$

VAZ088>098-251400-
SOUTHEAST VIRGINIA

CITY           SKY/WX    TMP DP  RH WIND       PRES   REMARKS
NORFOLK        FAIR      65  62  90 SW16      30.02S
VIRGINIA BEACH FAIR      66  60  81 SW14      30.02S
NORFOLK NAVAL  PTSUNNY   67  61  81 S14G21    30.02F
WEST POINT*    FAIR      62  59  88 S10       29.98F
SALUDA*        FAIR      57  57 100 S6        29.97F
NEWPORT NEWS   FAIR      65  60  84 SW16      29.99F
LANGLEY AFB    FAIR      65  63  92 SW16G22   30.00F
FORT EUSTIS    FAIR      64  60  87 S10       29.97F
WILLIAMSBURG*  FAIR      64  63  94 SW8       30.00S
HR EXEC AP*    FAIR      67  62  84 S10G17    30.03F
FRANKLIN*      FAIR      66  62  87 S9G17     30.02F
US460-WAKEFLD  FAIR      65  62  90 S8        29.99F
$$

VAZ020-022-025-037-045-251400-
WEST CENTRAL AND SOUTHWEST VIRGINIA

CITY           SKY/WX    TMP DP  RH WIND       PRES   REMARKS
STAUNTON*      LGT RAIN  46  46  99 NW9       30.01R
WAYNESBORO*    CLOUDY    46  46 100 NW9       29.97R
HOT SPRINGS VA LGT RAIN  51  51 100 W25G37    29.99R
LYNCHBURG      LGT RAIN  49  49 100 NW6       29.99R VSB 3/4
DANVILLE       FAIR      65  59  81 SW9G17    29.97R
SOUTH BOSTON*  FAIR      66  57  72 SW18G25   29.97R
MARTINSVILLE   CLOUDY    64  57  79 SW5       30.01R
ROANOKE        LGT RAIN  57  55  93 CALM      30.01R
BLACKSBURG     DRIZZLE   58  56  91 W7        30.06R
DUBLIN*        DRIZZLE   60  55  83 W13G20    30.06R
MARION*        LGT RAIN  57  54  89 W13       30.08R
HILLSVILLE*    RAIN      56  55  96 W3        30.05R
RICHLANDS*     RAIN      54  52  95 S5        30.05S
WISE*          LGT RAIN  54  50  87 SW9G15    30.02R
ABINGDON*      RAIN      59  58  98 W8        30.06R
$$

MDZ021>025-VAZ099-100-251400-
SOUTHERN MARYLAND AND THE DELMARVA PENINSULA

CITY           SKY/WX    TMP DP  RH WIND       PRES   REMARKS
PATUXENT RIVER FOG       46  46 100 CALM      29.97S VSB 1/16
BAY BRIDGE APT DRZL/FOG  46  46 100 CALM      29.98S VSB 1/4
LEONARDTOWN    CLOUDY    46  46 100 CALM      29.98S VSB<1/4
DOVER          FOG       46  46  99 E7        29.98F VSB 1/4
GEORGETOWN     FOG       49  47  93 CALM      29.98S VSB 1/4
EASTON         FOG       46  46 100 CALM      30.00F VSB 1/4
CAMBRIDGE      FOG       48  48 100 CALM      29.98S VSB 0
SALISBURY      FOG       51  51 100 S3        29.97F VSB 1/4
OCEAN CITY     FOG       47  47 100 S3        30.00S VSB 1/4
WALLOPS ISLAND FAIR      52  52 100 S5        30.00S FOG
ACCOMACK*      FAIR      58  58  98 S8        29.99S
$$

NCZ012>017-030>032-251400-
NORTH CENTRAL AND EASTERN NORTH CAROLINA

CITY           SKY/WX    TMP DP  RH WIND       PRES   REMARKS
ROANOKE RAPIDS FAIR      64  63  94 S12       30.02S
RALEIGH        FAIR      64  61  90 SW16G24   30.04S
ELIZABETH CITY PTSUNNY   65  64  97 S15       30.06F
AHOSKIE*       FAIR      66  63  88 S7        30.04S
EDENTON*       CLOUDY    67  64  89 SW12G20   30.08F
CURRITUCK*     CLOUDY    62  59  91 SW8       30.07F
KILL DEVIL HLS FAIR     N/A N/A N/A SW12G20   30.08R
MANTEO         FAIR      66  61  86 SW21G26   30.10R
CAPE HATTERAS  FAIR      66  63  90 SW10      30.13R
TARBORO*       NOT AVBL
GOLDSBORO      FAIR      67  63  87 SW12      30.06S
WASHINGTON     CLOUDY    65  64  93 SW9       30.09F
GREENVILLE     FAIR      66  64  94 SW9       30.08F
NEW BERN       FAIR      67  64  90 S12       30.11F
WILMINGTON     FAIR      69  66  90 SW9       30.12S
$$

VAZ048-251400-
ELSEWHERE

CITY           SKY/WX    TMP DP  RH WIND       PRES   REMARKS
HARRISBURG PA  LGT RAIN  45  43  93 MISG      30.06R FOG
BALTIMORE      LGT RAIN  44  44 100 E5        29.97S VSB 1/2
ANNAPOLIS      LGT RAIN  48  48 100 NE3       29.97F VSB 1/2
ANDREWS AFB    FOG       46  46  99 E3        30.02S VSB 1/8
PHILADELPHIA   HVY RAIN  43  42  97 NE6       30.02F FOG
HENDERSON NC   FAIR      62  57  84 SW14G20   30.01R
GREENSBORO     PTSUNNY   63  59  87 SW17G24   30.00R
ROCKY MOUNT    FAIR      66  62  87 S10       30.05S
$$

VAZ100-251400-
MARINE

STATION/POSITION TIME  TEMP    WIND        PRES    WAVE   SWELL
                       AIR SEA DIR/SP/G            HT/PER HT/PER
                 (UTC) (F)     (DEG/KT/KT) (MB)    (FT/S) (FT/S)
BRANDYWINE LGT   1242   46      90/ 10/ 11 1015.7R
CAPE MAY NJ      1248   45 43  110/  8/ 10 1015.1R
LEWES DE         1248      44  120/  3/  4 1015.2F
15NM E FENWICK I 1250   46 43  200/ 10/ 10 1016.2R   2/ 8   2/ 8
OCEAN-CITY-INLET 1248   45 43  200/  5/  5 1016.1R
WACHAPREAGUE VA  1248   54 52  220/  6/  9 1015.5F
THOMAS POINT MD  1300   45 42     CALM       N/A
GOOSES REEF MD   1300   44 42   50/  2/  4 1017.8    0
COVE POINT MD    1248   44     350/  1/  2 1015.5F
SOLOMONS ISLAND  1248   45 44   90/  4/  5 1014.5F
BISHOPS HEAD MD  1248   48 50  150/  4/  5 1015.4F
PINEY POINT MD   1236          150/  3/  3   N/A
POTOMAC MD       1300   44 43  270/  4/  4 1016.0    0
CAMBRIDGE MD     1248   47 48              1015.6F
LEWISETTA VA     1248   47 49   30/  1/  2 1014.8F
RAPPAHANNOCK LGT 1236          170/ 19/ 21 1015.7F
YORK RVR RNG VA  1248   59     210/ 21/ 24 1015.5F
YORKTOWN VA      1248   64 49  190/ 10/ 13 1014.8F
DOMINION TERM VA 1248   59     210/ 12/ 13 1016.4F
KIPTOPEKE VA     1248      48  210/ 13/ 15   N/A
CAPE HENRY VA    1248   66     200/ 13/ 18   N/A
WILLOUBY STN VA  1248   64     210/ 17/ 19 1016.1F
S CRANEY ISL VA  1248   64     210/ 10/ 14 1016.4S
CAPE HENRY BUOY  1230      46                N/A     2/ 9
CAPE CHARLES BUO 1251      45                N/A     2/10
64NM E OF VA BCH 1250   56 50  220/ 14/ 16 1018.7R   3/ 9   2/ 9
DUCK PIER NC     1248   65 45  220/ 16/ 20 1018.2R
44100 DUCK FRF   1145      48                N/A     2/ 8   2/11
44056 DUCK FRF   1300      47                N/A     2/ 9
OREGON INLET NC  1236   60 59  210/ 13/ 15 1019.4R
HATTERAS NC      1248      61  230/  9/ 13 1020.1R
DIAMOND SHLS NC  1250   72 74  240/ 19/ 21 1020.7R   5/ 5   2/ 9
CAPE LOOKOUT NC  1200          210/ 10/ 12 1020.5R
$$




USA.gov is the U.S. government's official web portal to all federal, state and local government web resources and services.